Location: ??????????
(54.7560°N, 39.1389°E)
Time: 14:04:51
(UTC+00:00)

KORONAS-FOTON - Pass Details

Date: 19 May 2025
Orbit: 447 x 464 km, 82.4° (Epoch: 20 June)

Event Time Altitude Azimuth Distance (km) Brightness Sun altitude
Exits shadow 20:15:47 25° 140° (SE) 979 4.7 -14.0°
Maximum altitude 20:17:12 35° 94° (E) 756 4.4 -14.1°
Drops below altitude 10° 20:20:25 10° 27° (NNE) 1,606 7.0 -14.2°
Sets 20:22:36 0° 18° (NNE) 2,481 8.3 -14.3°
